Airfield :
LOGIN :

Register | Disclaimer

   EN    FR    IT 

 










Legend :    VFR   Marginal VFR   IFR   Intensive IFR   Very Intensive IFR
Visi :
Ceiling :
>= 8 km
>= 3000ft
5 to 8 km
1000 to 3000 ft
1500m to 5 km
500 to 1000 ft
800 to 1500m
200 to 500 ft
< 800m
< 200 ft
Symbols :   Thunderstorms  Fog  Heavy snow  Heavy precipitations  Wind > 20 kt
SIGMETs :     Misc.  Thunderstorms  Icing  Turbulence  Mountain Waves  Volcanic Ashes







- Airport Elevation : 1411 ft
- IATA code : GVA


LSGG - Genève Cointrin

CURRENT METAR :
  • 190820Z 00000KT CAVOK 04/01 Q1023 NOSIG

EXPIRED METARs :
  • 190750Z VRB02KT CAVOK 01/00 Q1023 NOSIG
  • 190720Z 30002KT CAVOK M00/M02 Q1023 NOSIG
  • 190650Z 31002KT CAVOK M01/M02 Q1023 NOSIG
  • 190620Z VRB01KT CAVOK M01/M02 Q1022 NOSIG
  • 190550Z VRB02KT CAVOK M01/M02 Q1022 NOSIG
  • 190520Z VRB02KT CAVOK M01/M02 Q1022 NOSIG

TAF TAF LSGG
Valid from the 19 at 06:00 until the 20 at 12:00 UTC


190525Z 1906/2012 VRB03KT CAVOK TX11/1915Z TNM01/1906Z TNM01/2006Z
ATIS : +41 22 417 40 81
No reported NOTAMs for that airfield.



MET'MAP, your aeronautical weather chart ! - Copyright ORBIFLY December 2007 - Disclaimer

ORBIFLY MET'MAP TEAM :

Programming & Development : Alexandra Zaïnal
Concept & Development : Baudouin d'Aumeries
Co-Development & Prog : Marc-Olivier Méhu
Technical & hardware support : Manuel Goepfert

Contact : metmap@orbifly.com




SOURCES & CREDITS :

   NOAA